Location: Wildlife_Club
(35.6000°N, 81.4330°W)
Time: 16:33:30
(UTC-05:00)

Amateur Radio Satellites - All Passes

Search period start: 30 January 2015 16:03
Search period end: 31 January 2015 16:03
Location: Wildlife_Club, 35.6000°N, 81.4330°W

Satellite Date Start Highest point End Downlink Frequencies (MHz)
Time Altitude Azimuth
JUGNU 30 Jan 16:04:13 16:04:52 10° 166° (SSE) 16:05:38 437.505
AO-7 30 Jan 16:14:38 16:22:53 62° 257° (WSW) 16:31:10 29.400- 29.500
CUSAT 1 30 Jan 16:15:50 16:20:52 33° 272° (W) 16:24:42 437.405
STARS 30 Jan 16:21:55 16:25:25 22° 290° (WNW) 16:28:45 437.465
M-CUBED/EXP-1 PRIME 30 Jan 16:28:38 16:31:45 37° 290° (WNW) 16:34:58 437.505
KKS-1 30 Jan 16:32:55 16:34:42 12° 294° (WNW) 16:36:13 437.445
JAS-2 30 Jan 16:33:10 16:38:46 84° 256° (WSW) 16:44:01 435.910
MOZHAYETS 4 30 Jan 16:42:54 16:47:00 33° 96° (E) 16:51:09
AUBIESAT-1 30 Jan 17:01:31 17:03:44 16° 293° (WNW) 17:05:53 437.475
RS-15 30 Jan 17:12:13 17:17:37 13° 259° (W) 17:21:50 29.354- 29.394
O/OREOS (USA 219) 30 Jan 17:19:44 17:22:53 18° 302° (WNW) 17:25:54 437.305
Cubesat XI-IV 30 Jan 17:35:29 17:40:36 51° 73° (ENE) 17:45:47 437.490
JUGNU 30 Jan 17:49:37 17:53:08 16° 175° (S) 17:56:42 437.505
CUTE-I 30 Jan 17:54:50 18:00:08 78° 77° (ENE) 18:05:30 437.470
PRISM 30 Jan 18:06:12 18:09:31 23° 95° (E) 18:12:54 437.425
MOZHAYETS 4 30 Jan 18:20:40 18:24:04 20° 291° (WNW) 18:27:21
SRMSAT 30 Jan 18:33:07 18:36:10 14° 171° (S) 18:39:16 437.500
HO-68 30 Jan 18:37:56 18:40:24 12° 57° (ENE) 18:43:20 435.675
CUBESAT XI-V 30 Jan 18:39:12 18:43:40 43° 98° (E) 18:48:09 437.345
SO-50 30 Jan 18:56:47 19:01:28 42° 55° (NE) 19:06:09 436.795
YUBILEINY 30 Jan 19:13:34 19:21:43 49° 90° (E) 19:29:59 435.215
Cubesat XI-IV 30 Jan 19:17:35 19:21:05 17° 269° (W) 19:24:20 437.490
GOMX 1 30 Jan 19:18:01 19:20:23 14° 64° (ENE) 19:23:06 467.674
STRAND 1 30 Jan 19:21:19 19:26:30 80° 103° (ESE) 19:31:40 437.568
DOVE 4 30 Jan 19:24:31 19:25:34 11° 64° (ENE) 19:26:58 437.250
BRITE-PL 30 Jan 19:28:29 19:32:31 25° 68° (ENE) 19:36:54 437.365/2234.400
SEEDS 30 Jan 19:30:13 19:31:35 12° 68° (ENE) 19:33:11 437.485
JUGNU 30 Jan 19:37:55 19:41:27 16° 185° (S) 19:44:57 437.505
CUTE-I 30 Jan 19:39:51 19:40:56 10° 272° (W) 19:41:35 437.470
PRISM 30 Jan 19:41:37 19:44:59 24° 289° (WNW) 19:48:17 437.425
COMPASS 1 30 Jan 19:53:02 19:55:49 18° 70° (ENE) 19:58:44 437.405
CANX-2 30 Jan 20:10:34 20:14:40 46° 74° (ENE) 20:18:48 2200.000
AAUSAT CUBESAT 2 30 Jan 20:17:12 20:20:50 29° 72° (ENE) 20:24:31 437.432
CUBESAT XI-V 30 Jan 20:17:45 20:20:50 17° 292° (WNW) 20:23:44 437.345
HO-68 30 Jan 20:20:01 20:27:08 75° 73° (ENE) 20:34:18 435.675
SRMSAT 30 Jan 20:20:50 20:24:37 17° 181° (S) 20:28:25 437.500
CINEMA 3 30 Jan 20:33:38 20:37:55 31° 71° (ENE) 20:42:22 145.822/145.860
CUTE 1.7 + AOD 2 30 Jan 20:34:17 20:38:34 82° 78° (ENE) 20:42:53 437.475
UWE-3 30 Jan 20:37:01 20:39:43 16° 68° (ENE) 20:42:37 435.000/436.395/437.385
SO-50 30 Jan 20:38:06 20:41:48 21° 249° (WSW) 20:45:19 436.795
Oscar 11 30 Jan 20:41:56 20:45:36 28° 72° (ENE) 20:49:20 145.826/435.025
GOMX 1 30 Jan 20:52:53 20:57:53 69° 260° (W) 21:03:15 467.674
DOVE 4 30 Jan 20:57:36 21:02:37 84° 257° (WSW) 21:07:55 437.250
SEEDS 30 Jan 21:02:52 21:07:02 53° 261° (W) 21:11:12 437.485
STRAND 1 30 Jan 21:03:28 21:05:07 11° 296° (WNW) 21:06:27 437.568
BRITE-PL 30 Jan 21:06:13 21:10:50 35° 265° (W) 21:15:43 437.365/2234.400
VELOX 1 30 Jan 21:06:59 21:08:09 11° 66° (ENE) 21:09:35 145.980
YUBILEINY 30 Jan 21:11:12 21:18:51 32° 288° (WNW) 21:26:19 435.215
ISS 30 Jan 21:13:10 21:16:25 88° 139° (SE) 21:19:42 145.825
UKube-1 30 Jan 21:17:47 21:21:49 41° 73° (ENE) 21:25:55 .
HUMSAT D 30 Jan 21:26:47 21:30:09 23° 71° (ENE) 21:33:38 437.325/437.525
COMPASS 1 30 Jan 21:27:31 21:31:20 32° 263° (W) 21:35:08 437.405
CUBEBUG 2 30 Jan 21:34:30 21:39:15 80° 76° (ENE) 21:44:04 437.445
ZACube-1 30 Jan 21:35:15 21:39:44 56° 75° (ENE) 21:44:16 437.345
DELFI C3 30 Jan 21:38:06 21:42:12 77° 258° (WSW) 21:46:17 145.870
AIST 1 30 Jan 21:38:49 21:41:11 15° 72° (ENE) 21:43:45
DX 1 30 Jan 21:40:12 21:44:32 80° 76° (ENE) 21:48:55 434.975-435.025
FUNcube-1 30 Jan 21:46:33 21:51:07 74° 77° (ENE) 21:55:44 145.935
CANX-2 30 Jan 21:48:57 21:50:56 12° 270° (W) 21:52:40 2200.000
AAUSAT CUBESAT 2 30 Jan 21:53:29 21:56:34 19° 267° (W) 21:59:30 437.432
SRMSAT 30 Jan 22:10:17 22:13:05 13° 191° (S) 22:15:49 437.500
CINEMA 3 30 Jan 22:11:01 22:15:08 26° 266° (W) 22:19:15 145.822/145.860
HO-68 30 Jan 22:11:07 22:15:39 17° 270° (W) 22:19:45 435.675
UWE-3 30 Jan 22:11:24 22:15:54 47° 262° (W) 22:20:27 435.000/436.395/437.385
AISAT 30 Jan 22:12:29 22:16:53 66° 75° (ENE) 22:21:19 437.250
Oscar 11 30 Jan 22:18:24 22:21:48 21° 266° (W) 22:25:06 145.826/435.025
NANOSAT C BR1 30 Jan 22:20:06 22:21:56 13° 91° (E) 22:24:00 145.865
ESTCUBE 1 30 Jan 22:21:05 22:25:03 33° 72° (ENE) 22:29:05 437.505/2401.250
ANTELSAT 30 Jan 22:21:14 22:24:47 24° 94° (E) 22:28:21 437.575/2403.000
50 SAT 30 Jan 22:22:29 22:26:36 77° 76° (ENE) 22:30:45 437.505
TIGRISAT 30 Jan 22:27:49 22:31:36 28° 95° (E) 22:35:22 435.000
QB50P2 30 Jan 22:34:20 22:37:27 20° 94° (E) 22:40:39 145.880/145.840
VELOX 1 30 Jan 22:39:54 22:44:16 61° 259° (W) 22:48:42 145.980
QB50P1 30 Jan 22:42:45 22:46:15 24° 95° (E) 22:49:49 145.935-145.965
CUBEBUG 1 30 Jan 22:43:17 22:47:30 54° 75° (ENE) 22:51:48 437.445
BUGSAT 1 30 Jan 22:46:01 22:49:10 20° 94° (E) 22:52:25 437.445
ISS 30 Jan 22:51:39 22:53:20 13° 335° (NNW) 22:54:57 145.825
TISAT 1 30 Jan 22:55:15 22:57:44 16° 68° (ENE) 23:00:24 437.305
UKube-1 30 Jan 22:55:44 22:58:13 14° 268° (W) 23:00:31 .
POLYITAN 1 30 Jan 22:58:18 23:02:20 38° 98° (E) 23:06:20 437.675
HUMSAT D 30 Jan 23:02:09 23:05:52 26° 265° (W) 23:09:31 437.325/437.525
ZACube-1 30 Jan 23:14:36 23:16:31 12° 271° (W) 23:18:10 437.345
AIST 1 30 Jan 23:15:01 23:19:05 38° 268° (W) 23:23:08
POPSAT HIP 1 30 Jan 23:17:13 23:21:30 65° 100° (E) 23:25:45 437.405
DUCHIFAT 1 30 Jan 23:18:51 23:23:08 67° 101° (E) 23:27:23 145.980
UNISAT 6 30 Jan 23:21:09 23:25:33 64° 284° (WNW) 23:29:49 437.425
NANOSAT C BR1 30 Jan 23:54:00 23:58:07 44° 286° (WNW) 00:02:11 145.865
SPROUT 30 Jan 23:57:46 00:02:05 89° 77° (ENE) 00:06:27 437.525
ANTELSAT 30 Jan 23:57:56 00:01:34 25° 290° (WNW) 00:05:02 437.575/2403.000
ESTCUBE 1 30 Jan 23:58:45 00:02:02 19° 267° (W) 00:05:12 437.505/2401.250
TIGRISAT 31 Jan 00:04:51 00:08:14 21° 291° (WNW) 00:11:29 435.000
SWISSCUBE 31 Jan 00:06:35 00:09:35 17° 68° (ENE) 00:12:45 437.505
QB50P2 31 Jan 00:09:39 00:13:25 29° 288° (WNW) 00:17:06 145.880/145.840
QB50P1 31 Jan 00:18:35 00:22:06 24° 289° (WNW) 00:25:29 145.935-145.965
BUGSAT 1 31 Jan 00:20:58 00:24:42 29° 288° (WNW) 00:28:21 437.445
BEESAT 31 Jan 00:21:19 00:24:57 23° 69° (ENE) 00:28:43 436.000
CUBEBUG 1 31 Jan 00:23:03 00:24:19 11° 271° (W) 00:25:18 437.445
ITUPSAT 1 31 Jan 00:26:08 00:29:56 25° 70° (ENE) 00:33:51 437.325
TISAT 1 31 Jan 00:29:20 00:33:17 37° 262° (W) 00:37:16 437.305
POLYITAN 1 31 Jan 00:35:17 00:38:00 16° 292° (WNW) 00:40:32 437.675
GONETS M04 31 Jan 01:15:55 01:24:33 66° 93° (E) 01:33:10
BEESAT 2 31 Jan 01:30:34 01:34:19 36° 114° (ESE) 01:38:10 435.950
AIST 2 31 Jan 01:37:00 01:39:39 17° 110° (ESE) 01:42:29 435.215
Oscar 19 31 Jan 01:37:59 01:42:59 51° 99° (E) 01:47:58 437.125/150
STARS 31 Jan 01:40:15 01:43:17 19° 69° (ENE) 01:46:28 437.465
BEESAT 3 31 Jan 01:42:31 01:46:32 59° 116° (ESE) 01:50:36 437.485
SWISSCUBE 31 Jan 01:42:38 01:47:09 43° 261° (W) 01:51:41 437.505
M-CUBED/EXP-1 PRIME 31 Jan 01:43:13 01:44:06 11° 65° (ENE) 01:45:09 437.505
KKS-1 31 Jan 01:49:32 01:53:37 36° 72° (ENE) 01:57:46 437.445
O/OREOS (USA 219) 31 Jan 01:51:44 01:56:09 45° 66° (ENE) 02:00:34 437.305
BEESAT 31 Jan 01:58:25 02:02:40 32° 263° (W) 02:06:54 436.000
ITAMSAT 1 31 Jan 01:58:34 02:02:53 26° 95° (E) 02:07:17 435.822/435.867
ITUPSAT 1 31 Jan 02:03:37 02:07:46 29° 264° (W) 02:11:51 437.325
AUBIESAT-1 31 Jan 02:12:38 02:15:41 22° 68° (ENE) 02:18:38 437.475
Gurwin Techsat 1B 31 Jan 03:05:42 03:11:03 85° 101° (E) 03:16:23 435.225
RS-15 31 Jan 03:06:40 03:13:56 22° 104° (ESE) 03:21:50 29.354- 29.394
BEESAT 2 31 Jan 03:09:40 03:12:41 19° 311° (NW) 03:15:38 435.950
AIST 2 31 Jan 03:14:01 03:18:00 38° 305° (NW) 03:22:02 435.215
M-CUBED/EXP-1 PRIME 31 Jan 03:14:52 03:18:51 49° 255° (WSW) 03:22:30 437.505
GONETS M04 31 Jan 03:15:19 03:22:11 24° 292° (WNW) 03:28:40
STARS 31 Jan 03:15:29 03:19:33 34° 263° (W) 03:23:37 437.465
DANDE 31 Jan 03:16:05 03:22:38 29° 87° (E) 03:29:48 436.750
Oscar 19 31 Jan 03:18:38 03:21:59 17° 294° (WNW) 03:25:07 437.125/150
BEESAT 3 31 Jan 03:23:06 03:25:06 13° 314° (NW) 03:26:58 437.485
KKS-1 31 Jan 03:27:23 03:30:26 17° 267° (W) 03:33:21 437.445
O/OREOS (USA 219) 31 Jan 03:32:39 03:35:13 14° 260° (W) 03:37:34 437.305
CUSAT 1 31 Jan 03:34:00 03:41:34 45° 91° (E) 03:49:28 437.405
HORYU 2 31 Jan 03:34:04 03:38:23 49° 100° (E) 03:42:40 437.375
ITAMSAT 1 31 Jan 03:37:46 03:42:25 32° 290° (WNW) 03:46:59 435.822/435.867
MOZHAYETS 4 31 Jan 03:42:35 03:46:07 23° 70° (ENE) 03:49:46
ISS 31 Jan 03:43:36 03:46:30 28° 34° (NE) 03:49:24 145.825
JAS-2 31 Jan 03:45:58 03:48:41 14° 91° (E) 03:51:59 435.910
AUBIESAT-1 31 Jan 03:47:20 03:50:33 22° 258° (WSW) 03:53:31 437.475
PCSat 31 Jan 04:04:41 04:10:05 83° 113° (ESE) 04:15:32 145.827
AO-7 31 Jan 04:19:33 04:27:41 56° 102° (ESE) 04:35:48 29.400- 29.500
Gurwin Techsat 1B 31 Jan 04:48:53 04:50:24 11° 297° (WNW) 04:51:35 435.225
PRISM 31 Jan 04:55:48 04:57:26 12° 67° (ENE) 04:59:16 437.425
DANDE 31 Jan 04:57:31 05:05:38 61° 283° (WNW) 05:14:12 436.750
HORYU 2 31 Jan 05:12:25 05:14:41 13° 293° (WNW) 05:16:44 437.375
RS-15 31 Jan 05:14:17 05:25:15 81° 301° (WNW) 05:36:17 29.354- 29.394
CUSAT 1 31 Jan 05:17:02 05:24:42 40° 287° (WNW) 05:32:22 437.405
MOZHAYETS 4 31 Jan 05:19:13 05:23:15 29° 264° (W) 05:27:13
ISS 31 Jan 05:20:09 05:22:55 24° 229° (SW) 05:25:38 145.825
YUBILEINY 31 Jan 05:28:24 05:34:15 20° 66° (ENE) 05:40:33 435.215
JAS-2 31 Jan 05:28:24 05:34:15 76° 285° (WNW) 05:40:52 435.910
CUBESAT XI-V 31 Jan 05:40:09 05:44:06 30° 71° (ENE) 05:48:08 437.345
PCSat 31 Jan 05:51:20 05:54:16 14° 314° (NW) 05:56:59 145.827
Cubesat XI-IV 31 Jan 05:56:18 06:00:41 26° 95° (E) 06:05:13 437.490
AO-7 31 Jan 06:13:05 06:20:07 30° 298° (WNW) 06:26:54 29.400- 29.500
CUTE-I 31 Jan 06:15:15 06:20:15 40° 98° (E) 06:25:18 437.470
PRISM 31 Jan 06:28:40 06:32:37 45° 261° (W) 06:36:35 437.425
VERMONT LUNAR 31 Jan 06:33:44 06:35:59 17° 145° (SE) 06:38:20 437.305
STRAND 1 31 Jan 06:34:14 06:39:20 84° 74° (ENE) 06:44:28 437.568
DANDE 31 Jan 06:47:56 06:51:04 12° 303° (WNW) 06:53:29 436.750
CUBESAT XI-V 31 Jan 07:17:57 07:21:36 22° 266° (W) 07:25:08 437.345
YUBILEINY 31 Jan 07:23:21 07:32:09 77° 266° (W) 07:40:56 435.215
RS-15 31 Jan 07:31:18 07:39:45 24° 327° (NNW) 07:47:59 29.354- 29.394
Cubesat XI-IV 31 Jan 07:36:01 07:40:51 34° 290° (WNW) 07:45:38 437.490
BRITE-PL 31 Jan 07:39:02 07:40:03 11° 85° (E) 07:41:30 437.365/2234.400
PHONESAT 2.4 31 Jan 07:43:54 07:47:09 33° 149° (SSE) 07:50:26 2401.200-2431.200
HO-68 31 Jan 07:53:19 07:57:01 15° 89° (E) 08:01:13 435.675
CUTE-I 31 Jan 07:55:54 08:00:07 23° 292° (WNW) 08:04:13 437.470
VERMONT LUNAR 31 Jan 08:10:19 08:13:47 89° 189° (S) 08:17:18 437.305
CUTE 1.7 + AOD 2 31 Jan 08:23:55 08:26:38 17° 92° (E) 08:29:30 437.475
SEEDS 31 Jan 08:50:47 08:54:28 30° 96° (E) 08:58:11 437.485
GOMX 1 31 Jan 08:58:22 09:03:33 49° 98° (E) 09:08:27 467.674
DOVE 4 31 Jan 09:00:46 09:05:26 35° 96° (E) 09:09:53 437.250
SO-50 31 Jan 09:09:20 09:12:58 25° 112° (ESE) 09:16:49 436.795
BRITE-PL 31 Jan 09:13:45 09:19:24 82° 285° (WNW) 09:24:45 437.365/2234.400
COMPASS 1 31 Jan 09:13:57 09:17:59 47° 99° (E) 09:22:00 437.405
ANTELSAT 31 Jan 09:18:02 09:21:06 18° 69° (ENE) 09:24:20 437.575/2403.000
PHONESAT 2.4 31 Jan 09:22:03 09:25:37 58° 343° (NNW) 09:29:12 2401.200-2431.200
DELFI C3 31 Jan 09:22:24 09:25:07 18° 93° (E) 09:27:59 145.870
TIGRISAT 31 Jan 09:24:08 09:27:30 20° 69° (ENE) 09:31:00 435.000
YUBILEINY 31 Jan 09:24:48 09:27:46 11° 281° (W) 09:29:55 435.215
QB50P2 31 Jan 09:26:43 09:27:53 11° 67° (ENE) 09:29:20 145.880/145.840
ZACube-1 31 Jan 09:29:18 09:31:12 13° 90° (E) 09:33:19 437.345
CUBEBUG 2 31 Jan 09:30:11 09:33:30 21° 92° (E) 09:36:51 437.445
DX 1 31 Jan 09:32:47 09:35:39 17° 93° (E) 09:38:40 434.975-435.025
QB50P1 31 Jan 09:34:19 09:36:23 14° 68° (ENE) 09:38:40 145.935-145.965
CANX-2 31 Jan 09:34:46 09:38:55 56° 285° (WNW) 09:43:01 2200.000
HO-68 31 Jan 09:38:26 09:45:37 80° 287° (WNW) 09:52:47 435.675
AAUSAT CUBESAT 2 31 Jan 09:38:28 09:42:38 85° 102° (ESE) 09:46:47 437.432
FUNcube-1 31 Jan 09:39:44 09:42:33 17° 92° (E) 09:45:29 145.935
VERMONT LUNAR 31 Jan 09:48:51 09:52:07 37° 354° (N) 09:55:25 437.305
POLYITAN 1 31 Jan 09:49:23 09:52:34 21° 70° (ENE) 09:55:53 437.675
RS-15 31 Jan 09:54:02 09:58:08 12° 2° (N) 10:02:21 29.354- 29.394
BEESAT 2 31 Jan 09:54:49 09:56:15 12° 45° (NE) 09:57:52 435.950
CUTE 1.7 + AOD 2 31 Jan 09:58:54 10:02:42 32° 287° (WNW) 10:06:25 437.475
UWE-3 31 Jan 10:04:53 10:09:07 43° 98° (E) 10:13:14 435.000/436.395/437.385
BEESAT 3 31 Jan 10:05:42 10:08:22 17° 48° (NE) 10:11:06 437.485
50 SAT 31 Jan 10:06:56 10:08:36 13° 91° (E) 10:10:28 437.505
POPSAT HIP 1 31 Jan 10:07:31 10:11:19 33° 72° (ENE) 10:15:13 437.405
Oscar 11 31 Jan 10:07:36 10:11:56 85° 104° (ESE) 10:16:13 145.826/435.025
AISAT 31 Jan 10:07:51 10:10:36 16° 92° (E) 10:13:31 437.250
CINEMA 3 31 Jan 10:08:37 10:13:25 77° 282° (WNW) 10:17:57 145.822/145.860
DUCHIFAT 1 31 Jan 10:08:49 10:12:38 33° 72° (ENE) 10:16:32 145.980
UNISAT 6 31 Jan 10:16:39 10:21:22 78° 77° (ENE) 10:26:04 437.425
SEEDS 31 Jan 10:27:09 10:30:07 19° 290° (WNW) 10:32:58 437.485
VELOX 1 31 Jan 10:33:56 10:37:55 31° 97° (E) 10:41:56 145.980
CUBEBUG 1 31 Jan 10:37:08 10:39:04 13° 91° (E) 10:41:17 437.445
GOMX 1 31 Jan 10:37:33 10:41:16 19° 293° (WNW) 10:44:40 467.674
DOVE 4 31 Jan 10:38:57 10:42:58 23° 292° (WNW) 10:46:43 437.250
NANOSAT C BR1 31 Jan 10:43:26 10:47:42 90° 252° (WSW) 10:52:01 145.865
UKube-1 31 Jan 10:44:13 10:48:34 69° 285° (WNW) 10:52:53 .
HUMSAT D 31 Jan 10:49:03 10:53:14 62° 100° (E) 10:57:21 437.325/437.525
SO-50 31 Jan 10:49:20 10:53:25 31° 308° (NW) 10:57:35 436.795
COMPASS 1 31 Jan 10:51:36 10:53:20 12° 292° (WNW) 10:54:52 437.405
ANTELSAT 31 Jan 10:53:09 10:57:37 41° 262° (W) 11:02:04 437.575/2403.000
DELFI C3 31 Jan 10:56:56 11:00:26 28° 288° (WNW) 11:03:52 145.870
QB50P2 31 Jan 10:59:11 11:03:23 56° 260° (W) 11:07:38 145.880/145.840
TIGRISAT 31 Jan 10:59:42 11:04:03 36° 263° (W) 11:08:22 435.000
PHONESAT 2.4 31 Jan 11:01:09 11:04:32 36° 1° (N) 11:07:56 2401.200-2431.200
ZACube-1 31 Jan 11:03:44 11:07:56 44° 286° (WNW) 11:12:00 437.345
CUBEBUG 2 31 Jan 11:06:19 11:10:17 30° 289° (WNW) 11:14:04 437.445
BUGSAT 1 31 Jan 11:07:44 11:11:46 59° 260° (W) 11:15:53 437.445
QB50P1 31 Jan 11:07:51 11:11:57 44° 261° (W) 11:16:04 145.935-145.965
DX 1 31 Jan 11:08:01 11:12:03 35° 288° (WNW) 11:16:01 434.975-435.025
FUNcube-1 31 Jan 11:15:07 11:19:05 33° 288° (WNW) 11:22:54 145.935
POLYITAN 1 31 Jan 11:24:37 11:28:23 28° 264° (W) 11:32:06 437.675
VERMONT LUNAR 31 Jan 11:27:16 11:30:38 43° 11° (N) 11:34:00 437.305
HO-68 31 Jan 11:29:01 11:32:25 14° 302° (WNW) 11:35:23 435.675
GONETS M04 31 Jan 11:30:40 11:37:38 27° 70° (ENE) 11:44:53
BEESAT 2 31 Jan 11:30:51 11:35:00 69° 243° (WSW) 11:39:04 435.950
AIST 2 31 Jan 11:38:27 11:42:39 55° 58° (ENE) 11:46:47 435.215
50 SAT 31 Jan 11:40:11 11:43:58 39° 286° (WNW) 11:47:41 437.505
AIST 1 31 Jan 11:41:14 11:45:25 55° 279° (W) 11:49:37
UWE-3 31 Jan 11:42:45 11:45:18 15° 293° (WNW) 11:47:38 435.000/436.395/437.385
BEESAT 3 31 Jan 11:42:49 11:46:44 42° 245° (WSW) 11:50:35 437.485
AISAT 31 Jan 11:43:12 11:47:26 39° 287° (WNW) 11:51:36 437.250
POPSAT HIP 1 31 Jan 11:44:23 11:47:21 18° 267° (W) 11:50:11 437.405
DUCHIFAT 1 31 Jan 11:45:45 11:48:39 17° 268° (W) 11:51:23 145.980
SPROUT 31 Jan 11:48:33 11:51:39 20° 93° (E) 11:54:53 437.525
ESTCUBE 1 31 Jan 11:52:59 11:57:32 74° 284° (WNW) 12:02:03 437.505/2401.250
RS-15 31 Jan 12:07:20 12:16:18 27° 37° (NE) 12:25:54 29.354- 29.394
VELOX 1 31 Jan 12:10:56 12:14:21 21° 291° (WNW) 12:17:37 145.980
CUBEBUG 1 31 Jan 12:11:29 12:15:47 47° 286° (WNW) 12:20:03 437.445
TISAT 1 31 Jan 12:17:02 12:21:05 40° 98° (E) 12:25:09 437.305
PHONESAT 2.4 31 Jan 12:39:50 12:43:26 63° 17° (NNE) 12:47:03 2401.200-2431.200
Gurwin Techsat 1B 31 Jan 12:48:24 12:49:45 11° 63° (ENE) 12:51:26 435.225
Oscar 19 31 Jan 12:51:46 12:56:50 55° 74° (ENE) 13:01:55 437.125/150
PCSat 31 Jan 12:55:51 13:00:47 35° 56° (NE) 13:05:45 145.827
VERMONT LUNAR 31 Jan 13:05:23 13:08:49 55° 207° (SSW) 13:12:16 437.305
ITAMSAT 1 31 Jan 13:13:47 13:18:12 30° 70° (ENE) 13:22:44 435.822/435.867
AIST 2 31 Jan 13:19:22 13:20:51 11° 251° (WSW) 13:22:03 435.215
SPROUT 31 Jan 13:23:59 13:27:49 30° 288° (WNW) 13:31:35 437.525
GONETS M04 31 Jan 13:26:34 13:35:02 57° 268° (W) 13:43:25
AO-7 31 Jan 13:30:07 13:31:46 11° 51° (NE) 13:34:01 29.400- 29.500
SWISSCUBE 31 Jan 13:45:45 13:50:30 61° 101° (E) 13:55:15 437.505
TISAT 1 31 Jan 13:54:05 13:56:37 15° 292° (WNW) 13:58:58 437.305
BEESAT 31 Jan 14:01:03 14:05:51 82° 103° (ESE) 14:10:38 436.000
ITUPSAT 1 31 Jan 14:06:27 14:11:16 89° 284° (WNW) 14:16:05 437.325
DANDE 31 Jan 14:06:46 14:08:52 12° 57° (ENE) 14:11:07 436.750
PHONESAT 2.4 31 Jan 14:18:40 14:21:53 29° 212° (SSW) 14:25:05 2401.200-2431.200
RS-15 31 Jan 14:19:02 14:30:33 89° 62° (ENE) 14:42:34 29.354- 29.394
CUSAT 1 31 Jan 14:21:52 14:25:40 19° 63° (ENE) 14:28:59 437.405
Gurwin Techsat 1B 31 Jan 14:23:48 14:29:06 83° 256° (WSW) 14:34:28 435.225
HORYU 2 31 Jan 14:29:50 14:33:49 32° 72° (ENE) 14:37:50 437.375
Oscar 19 31 Jan 14:33:31 14:36:36 15° 269° (W) 14:39:24 437.125/150
PCSat 31 Jan 14:39:31 14:44:06 28° 252° (WSW) 14:48:34 145.827
ITAMSAT 1 31 Jan 14:53:15 14:57:42 28° 265° (W) 15:02:04 435.822/435.867
M-CUBED/EXP-1 PRIME 31 Jan 15:01:49 15:02:27 10° 98° (E) 15:03:18 437.505
STARS 31 Jan 15:08:04 15:12:26 53° 100° (E) 15:16:45 437.465
AO-7 31 Jan 15:14:56 15:23:04 59° 68° (ENE) 15:31:15 29.400- 29.500
KKS-1 31 Jan 15:19:52 15:24:21 70° 284° (WNW) 15:28:47 437.445
SWISSCUBE 31 Jan 15:25:41 15:27:55 13° 294° (WNW) 15:29:54 437.505
AUBIESAT-1 31 Jan 15:31:02 15:33:49 24° 102° (ESE) 15:36:46 437.475
JAS-2 31 Jan 15:39:12 15:43:49 30° 71° (ENE) 15:48:20 435.910
DANDE 31 Jan 15:47:37 15:53:41 70° 265° (W) 15:58:05 436.750
JUGNU 31 Jan 15:48:21 15:49:53 11° 167° (SSE) 15:51:33 437.505
